Weather History for KRMY - June, 2013

Change the Weather History Date:

Friday, June 21, 2013

  Actual Average (KBTL) Record (KBTL)
Temperature  
Mean Temperature 74 °F 69 °F  
Max Temperature 84 °F 81 °F 91 °F (2011)
Min Temperature 63 °F 57 °F 48 °F (2003)
Degree Days  
Heating Degree Days 0 1  
Month to date heating degree days 49  
Since 1 June heating degree days 49  
Since 1 July heating degree days 6683  
Cooling Degree Days 8 5  
Month to date cooling degree days 74  
Year to date cooling degree days 112  
Since 1 June cooling degree days 74  
Growing Degree Days 24 (Base 50)    
Moisture  
Dew Point 58 °F    
Average Humidity 58    
Maximum Humidity 86    
Minimum Humidity 38    
Precipitation  
Precipitation 0.00 in 0.11 in 1.48 in (2011)
Month to date precipitation 2.30  
Year to date precipitation 13.78  
Sea Level Pressure  
Sea Level Pressure 30.14 in    
Wind  
Wind Speed 5 mph (South)    
Max Wind Speed 14 mph    
Max Gust Speed 20 mph    
Visibility 10 miles    
Events      
T = Trace of Precipitation, MM = Missing Value Source: NWS Daily Summary

Daily Weather History Graph

Daily Weather History Graph

Search for Another Location

Airport or City:

Trip Planner

Search our weather history database for the weather conditions in past years. The results will help you decide how hot, cold, wet, or windy it might be!

Date:

Astronomy

Jun. 21, 2013 Rise Set
Actual Time 6:03 AM EDT 9:19 PM EDT
Civil Twilight 5:28 AM EDT 9:54 PM EDT
Nautical Twilight 4:43 AM EDT 10:39 PM EDT
Astronomical Twilight 3:49 AM EDT 11:34 PM EDT
Moon 7:28 PM EDT (6/21) 4:19 AM EDT (6/21)
Length of Visible Light 16h 25m
Length of Day
15h 16m
Waxing Gibbous, 95% of the Moon is Illuminated
Jun 21
Waxing Gibbous
Jun 23
Full
Jun 30
Last Quarter
Jul 8
New
Jul 15
First Quarter

Hourly Weather History & Observations

Time (EDT) Temp. Heat Index Dew Point Humidity Pressure Visibility Wind Dir Wind Speed Gust Speed Precip Events Conditions
12:14 AM 63.9 °F - 59.5 °F 86% 30.19 in 10.0 mi Calm Calm - N/A   Clear
12:34 AM 63.1 °F - 58.6 °F 85% 30.20 in 10.0 mi East 3.5 mph - N/A   Scattered Clouds
12:53 AM 65.8 °F - 58.1 °F 76% 30.20 in 10.0 mi ESE 5.8 mph - N/A   Overcast
1:14 AM 65.5 °F - 58.1 °F 77% 30.19 in 10.0 mi East 4.6 mph - N/A   Mostly Cloudy
1:34 AM 65.5 °F - 57.9 °F 77% 30.19 in 10.0 mi East 4.6 mph - N/A   Scattered Clouds
1:53 AM 65.1 °F - 57.7 °F 77% 30.19 in 10.0 mi East 4.6 mph - N/A   Scattered Clouds
2:14 AM 64.9 °F - 57.6 °F 77% 30.19 in 10.0 mi East 3.5 mph - N/A   Clear
2:34 AM 64.4 °F - 57.6 °F 78% 30.19 in 10.0 mi East 3.5 mph - N/A   Clear
2:53 AM 64.2 °F - 57.4 °F 78% 30.18 in 10.0 mi ESE 3.5 mph - N/A   Clear
3:14 AM 63.9 °F - 57.4 °F 79% 30.18 in 10.0 mi SE 3.5 mph - N/A   Scattered Clouds
3:34 AM 63.9 °F - 57.4 °F 79% 30.17 in 10.0 mi SE 4.6 mph - N/A   Scattered Clouds
3:54 AM 63.9 °F - 57.0 °F 78% 30.17 in 10.0 mi Calm Calm - N/A   Clear
4:14 AM 64.0 °F - 57.4 °F 79% 30.17 in 10.0 mi SE 4.6 mph - N/A   Clear
4:34 AM 64.0 °F - 57.0 °F 78% 30.16 in 10.0 mi Calm Calm - N/A   Clear
4:54 AM 63.9 °F - 56.8 °F 78% 30.16 in 10.0 mi Calm Calm - N/A   Clear
5:14 AM 63.3 °F - 56.7 °F 79% 30.16 in 10.0 mi Calm Calm - N/A   Clear
5:34 AM 63.1 °F - 56.8 °F 80% 30.16 in 10.0 mi Calm Calm - N/A   Scattered Clouds
5:54 AM 64.8 °F - 56.7 °F 75% 30.17 in 10.0 mi Calm Calm - N/A   Scattered Clouds
6:14 AM 64.8 °F - 56.8 °F 75% 30.17 in 10.0 mi Calm Calm - N/A   Clear
6:33 AM 64.6 °F - 57.0 °F 76% 30.17 in 10.0 mi SSE 3.5 mph - N/A   Clear
6:54 AM 65.1 °F - 57.6 °F 76% 30.16 in 10.0 mi SSE 4.6 mph - N/A   Clear
7:14 AM 66.4 °F - 58.3 °F 75% 30.16 in 10.0 mi Calm Calm - N/A   Clear
7:33 AM 67.6 °F - 59.0 °F 74% 30.17 in 10.0 mi South 3.5 mph - N/A   Clear
7:54 AM 69.1 °F - 59.5 °F 72% 30.19 in 10.0 mi SW 3.5 mph - N/A   Clear
8:14 AM 70.0 °F - 59.7 °F 70% 30.20 in 10.0 mi SSW 4.6 mph - N/A   Clear
8:33 AM 71.2 °F - 60.3 °F 68% 30.20 in 10.0 mi SSW 3.5 mph - N/A   Clear
8:54 AM 73.0 °F - 60.4 °F 65% 30.18 in 10.0 mi SSW 4.6 mph - N/A   Clear
9:14 AM 74.3 °F - 60.6 °F 62% 30.15 in 10.0 mi South 8.1 mph - N/A   Clear
9:34 AM 76.3 °F - 60.4 °F 58% 30.15 in 10.0 mi South 9.2 mph - N/A   Clear
9:54 AM 78.1 °F - 59.7 °F 53% 30.17 in 10.0 mi SSW 6.9 mph - N/A   Scattered Clouds
10:14 AM 79.0 °F - 59.4 °F 51% 30.18 in 10.0 mi SW 8.1 mph - N/A   Scattered Clouds
10:34 AM 80.1 °F 81.0 °F 60.4 °F 51% 30.18 in 10.0 mi WSW 11.5 mph 17.3 mph N/A   Scattered Clouds
10:54 AM 80.2 °F 80.9 °F 59.4 °F 49% 30.18 in 10.0 mi SW 11.5 mph 16.1 mph N/A   Clear
11:14 AM 80.8 °F 81.4 °F 60.1 °F 49% 30.18 in 10.0 mi SSW 8.1 mph - N/A   Clear
11:34 AM 81.9 °F 82.2 °F 60.1 °F 47% 30.19 in 10.0 mi SW 9.2 mph - N/A   Clear
11:54 AM 82.8 °F 82.8 °F 59.2 °F 45% 30.18 in 10.0 mi SSW 10.4 mph 18.4 mph N/A   Clear
12:14 PM 83.1 °F 83.2 °F 59.7 °F 45% 30.18 in 10.0 mi SW 12.7 mph - N/A   Clear
12:34 PM 83.7 °F 83.3 °F 58.3 °F 42% 30.17 in 10.0 mi SSW 12.7 mph 19.6 mph N/A   Clear
12:54 PM 84.0 °F 83.5 °F 58.1 °F 41% 30.16 in 10.0 mi SSW 10.4 mph 18.4 mph N/A   Clear
1:14 PM 84.0 °F 83.5 °F 57.9 °F 41% 30.16 in 10.0 mi SW 11.5 mph - N/A   Clear
1:34 PM 84.4 °F 83.7 °F 57.6 °F 40% 30.16 in 10.0 mi South 13.8 mph 18.4 mph N/A   Clear
1:54 PM 84.9 °F 84.1 °F 57.4 °F 39% 30.16 in 10.0 mi SW 10.4 mph - N/A   Clear
2:14 PM 84.6 °F 83.7 °F 56.8 °F 39% 30.17 in 10.0 mi South 9.2 mph - N/A   Clear
2:34 PM 84.4 °F 83.5 °F 56.7 °F 39% 30.16 in 10.0 mi SSW 10.4 mph - N/A   Scattered Clouds
2:54 PM 84.9 °F 83.9 °F 56.8 °F 38% 30.16 in 10.0 mi SSW 9.2 mph - N/A   Scattered Clouds
3:14 PM 84.9 °F 83.9 °F 56.5 °F 38% 30.17 in 10.0 mi SW 10.4 mph 16.1 mph N/A   Scattered Clouds
3:34 PM 84.2 °F 83.3 °F 56.7 °F 39% 30.16 in 10.0 mi SW 9.2 mph - N/A   Clear
3:53 PM 83.8 °F 83.0 °F 56.5 °F 39% 30.14 in 10.0 mi SW 6.9 mph - N/A   Clear
4:14 PM 84.4 °F 83.7 °F 57.9 °F 40% 30.13 in 10.0 mi South 8.1 mph - N/A   Clear
4:33 PM 83.8 °F 83.0 °F 56.1 °F 39% 30.12 in 10.0 mi South 8.1 mph - N/A   Clear
4:54 PM 83.3 °F 82.6 °F 56.3 °F 40% 30.12 in 10.0 mi SSW 8.1 mph 16.1 mph N/A   Clear
5:14 PM 83.3 °F 82.9 °F 57.7 °F 42% 30.11 in 10.0 mi South 9.2 mph - N/A   Clear
5:33 PM 82.8 °F 82.4 °F 57.4 °F 42% 30.09 in 10.0 mi South 12.7 mph 17.3 mph N/A   Clear
5:54 PM 82.6 °F 82.0 °F 56.3 °F 40% 30.06 in 10.0 mi South 10.4 mph 18.4 mph N/A   Clear
6:14 PM 82.0 °F 81.6 °F 56.3 °F 41% 30.04 in 10.0 mi South 10.4 mph 18.4 mph N/A   Clear
6:33 PM 81.9 °F 81.6 °F 56.5 °F 42% 30.03 in 10.0 mi South 11.5 mph 16.1 mph N/A   Clear
6:54 PM 81.7 °F 81.4 °F 56.5 °F 42% 30.03 in 10.0 mi South 8.1 mph 17.3 mph N/A   Clear
7:14 PM 81.3 °F 81.0 °F 55.6 °F 41% 30.04 in 10.0 mi South 11.5 mph 19.6 mph N/A   Clear
7:34 PM 81.1 °F 81.0 °F 56.1 °F 42% 30.04 in 10.0 mi South 9.2 mph 16.1 mph N/A   Scattered Clouds
7:54 PM 81.0 °F 80.8 °F 55.9 °F 42% 30.06 in 10.0 mi South 4.6 mph - N/A   Scattered Clouds
8:14 PM 80.8 °F 80.7 °F 55.8 °F 42% 30.06 in 10.0 mi South 6.9 mph - N/A   Scattered Clouds
8:34 PM 80.6 °F 80.6 °F 56.1 °F 43% 30.06 in 10.0 mi South 6.9 mph - N/A   Clear
8:54 PM 79.5 °F - 56.5 °F 45% 30.06 in 10.0 mi South 3.5 mph - N/A   Clear
9:13 PM 79.0 °F - 56.7 °F 46% 30.06 in 10.0 mi Calm Calm - N/A   Clear
9:34 PM 77.0 °F - 57.0 °F 50% 30.06 in 10.0 mi Calm Calm - N/A   Clear
9:54 PM 73.9 °F - 57.9 °F 57% 30.07 in 10.0 mi Calm Calm - N/A   Clear
10:13 PM 70.9 °F - 59.2 °F 66% 30.08 in 10.0 mi Calm Calm - N/A   Clear
10:34 PM 70.3 °F - 59.0 °F 67% 30.08 in 10.0 mi Calm Calm - N/A   Clear
10:54 PM 70.5 °F - 59.0 °F 67% 30.09 in 10.0 mi Calm Calm - N/A   Clear
11:13 PM 68.7 °F - 59.4 °F 72% 30.09 in 10.0 mi Calm Calm - N/A   Clear
11:34 PM 70.2 °F - 59.2 °F 68% 30.09 in 10.0 mi Calm Calm - N/A   Clear
11:53 PM 70.9 °F - 59.2 °F 66% 30.09 in 10.0 mi Calm Calm - N/A   Clear